NOAA 16 DEB, 41421

Orbit data source: Space-Track

NOAA 16 DEB, 41421 is space debris in SSO originally from a launch on Thu, 21 Sep 2000 UTC launched from the Air Force Western Test Range (AFWTR). Debris objects in space refer to the collection of defunct objects orbiting the Earth. Examples of debris include non-operational satellites, rocket bodies, and fragments generated from explosions, collisions, or faulty payload assembly.

Loading next visibility...
Identifier
41421, 2000-055LA
Orbit
SSO
Country
Flag of USUS
Related business
Manufacturer
Unknown
Mission
Spacecraft
Bus & Motor
Unknown
Mass
Unknown
Launch date (UTC)
2000-09-21 (25 years ago)
Launch vehicle
Unknown
Launch site
Air Force Western Test Range (AFWTR)
Object type
Payload
Rocket body
Debris
Shape & HBR
Unknown shape, 0.1 m
Radar Cross Section
Small (<0.1 m²)

Expand to show TLE details & history
Last TLE update: 3 days ago

TLE from 3 days ago
0 NOAA 16 DEB
1 41421U 00055LA  25291.51213540  .00023861  00000-0  47889-2 0  9990
2 41421  98.9568 135.6701 0032380  77.0948 283.3864 14.61330719503358
Epoch: 2025-10-18T12:17Z
TLE epoch observation values (Epoch: 2025-10-18T12:17:28.498Z)
Latitude
-0.00003°
Longitude
-75.94073°
Altitude
686.614 km
Speed
7.516 km/s
True Right ascension
09h 02m 40s
True Declination
0° 00' 00"
Sunlit
Object was in daylight at epoch
Visualization orbit readout
Latitude
Unknown
Longitude
Unknown
Altitude
Unknown
Speed
Unknown
Apparent Right ascension
Unknown
Apparent Declination
Unknown
Sunlit
N/A
Visualization observer readout
Local Sidereal Time
19:27:30
Azimuth
Unknown
Elevation
Unknown
Doppler factor
Unknown
Orbital elements
Apogee altitude
708.87 km
Perigee altitude
663.123 km
Semi-major axis
7,064.133 km
Eccentricity
0.00324
Inclination
98.9568°
RAAN
135.6701°
Arg. of periapsis
77.0948°
True anomaly
283.0251°
Mean anomaly
283.3864°
Eccentric anomaly
283.20578°
Mean motion
3.65557 °/min
Orbital period
98.48 mins
BSTAR
0.0047889
Loading maneuver chart data...
Computing Atmospheric mass density...
Loading historical data...
Loading historical data...
Loading historical data...
Loading historical data...
Loading historical data...
Loading historical data...
Loading historical data...

Documentation

Showing up to 5 results
|